[[{"header":{"parameterUnit":"m.s-1","parameterCategory":1,"la1":30.2991,"la2":30.254,"lo1":-89.0895,"lo2":-89.0444,"dy":0.0017,"dx":0.0017,"nx":28,"ny":28,"refTime":"2024-04-18T09:00:00:Z","depth":0,"parameterNumber":2,"parameterNumberName":"U-component_of_WINDS"},"data":[0,0,0,0,0,0,0,0,0,0,0,0,0,0,0,0,0,0,0,0,0,0,0,0,0,0,0,0,0,0,0,0,0,0,0,0,0,0,0,0,0,0,0,0,0,0,0,0,0,0,0,0,0,0,0,0,0,0,0.068,0.068,0,0.0706,0.0706,0.0707,0.0723,0.0724,0.0724,0.0724,0.0749,0.075,0.075,0,0,0,0,0,0,0,0,0,0,0,0,0,0.0644,0.0644,0.068,0.068,0.068,0.0706,0.0706,0.0707,0.0723,0.0724,0.0724,0.0724,0.0749,0.075,0.075,0,0,0,0,0,0,0,0,0,0,0,0,0,0.0663,0.0644,0.068,0.0692,0.0693,0.0706,0.0706,0.0707,0.0723,0.0724,0.0724,0.0724,0.0749,0.075,0.075,0.0753,0,0,0.0753,0.0753,0,0,0,0,0,0,0,0,0.0662,0.0665,0.069,0.0691,0.0693,0.0712,0.0703,0.0722,0.0723,0.0712,0.0724,0.0724,0.0736,0.0738,0.0743,0.0754,0.0755,0.0753,0.0754,0.0754,0.0754,0,0,0,0,0,0,0,0.0661,0.0664,0.069,0.069,0.0692,0.0696,0.0699,0.0707,0.0723,0.0713,0.0714,0.0717,0.0737,0.0742,0.0744,0.0755,0.0753,0.0754,0.0754,0.0755,0.0771,0.0771,0,0,0,0,0,0,0.0658,0.0662,0.0689,0.0691,0.0678,0.0696,0.07,0.0705,0.0723,0.0726,0.0717,0.0718,0.074,0.0743,0.0745,0.0749,0.0754,0.0755,0.0755,0.0771,0.0771,0.0771,0,0,0,0,0,0,0.0657,0.066,0.0688,0.0677,0.0681,0.0697,0.0703,0.0706,0.0711,0.0726,0.0729,0.0719,0.0741,0.0743,0.0751,0.075,0.0755,0.0756,0.0771,0.0771,0.0771,0.0758,0,0,0,0,0,0,0.0656,0.066,0.0661,0.0677,0.0682,0.0694,0.0703,0.0706,0.0712,0.0714,0.0729,0.0731,0.0741,0.075,0.0752,0.0752,0.0757,0.0771,0.0771,0.0771,0.0759,0.0758,0.0757,0,0,0,0,0,0.0654,0.0655,0.066,0.0664,0.0683,0.0694,0.0697,0.0708,0.0712,0.0713,0.0723,0.0731,0.075,0.075,0.0753,0.0753,0.0771,0.0771,0.0771,0.0759,0.0758,0.0757,0,0,0,0,0,0,0.0637,0.0658,0.0664,0.067,0.068,0.0697,0.0699,0.0706,0.0716,0.0716,0.073,0.0733,0.074,0.0747,0.0747,0.0757,0.0762,0.0762,0.0752,0.0751,0.075,0.0748,0.0757,0,0,0,0,0,0.0635,0.0642,0.0659,0.0663,0.0668,0.0683,0.0688,0.0696,0.0707,0.0711,0.0722,0.0732,0.0741,0.0746,0.0755,0.076,0.0764,0.0762,0.0761,0.076,0.076,0.0764,0.0764,0.077,0.077,0.077,0,0,0.0628,0.064,0.0644,0.066,0.0669,0.0677,0.0686,0.0693,0.0699,0.0712,0.0721,0.0729,0.0741,0.0748,0.0752,0.0754,0.0759,0.0759,0.0759,0.0759,0.0764,0.0763,0.0763,0.077,0.077,0.077,0,0,0.0621,0.0631,0.0636,0.0645,0.0659,0.0669,0.067,0.0686,0.0692,0.0701,0.0712,0.0719,0.0733,0.0742,0.0748,0.0746,0.0753,0.0748,0.0743,0.0747,0.0747,0.0746,0.0746,0.0746,0.0748,0.0748,0.0748,0,0.0612,0.0624,0.0637,0.0645,0.0652,0.0665,0.067,0.0678,0.0694,0.0699,0.0702,0.0721,0.073,0.074,0.0739,0.0744,0.0746,0.0746,0.0746,0.0745,0.0745,0.0745,0.0745,0.0747,0.0748,0.0748,0.0748,0,0.0612,0.062,0.0623,0.0639,0.0646,0.0652,0.0667,0.0672,0.068,0.069,0.0699,0.0711,0.0723,0.0725,0.0733,0.0736,0.0738,0.0743,0.0748,0.0744,0.0744,0.0744,0.0747,0.0747,0.0747,0.0747,0,0,0.0594,0.0619,0.062,0.0628,0.0645,0.0651,0.0658,0.0671,0.0676,0.0686,0.0693,0.0706,0.0711,0.0718,0.0727,0.073,0.0729,0.0735,0.0736,0.0734,0.0735,0.0731,0.0731,0.0734,0.0734,0.0734,0.0734,0,0.059,0.0605,0.0617,0.0627,0.0635,0.0648,0.0655,0.0666,0.0675,0.0684,0.0694,0.0703,0.0709,0.0713,0.0718,0.0728,0.0729,0.0728,0.0741,0.0741,0.0737,0.0731,0.0727,0.0727,0.0734,0.0734,0.0734,0,0.0588,0.0599,0.0609,0.0627,0.0631,0.0636,0.065,0.0657,0.067,0.0677,0.0686,0.0695,0.0704,0.0708,0.072,0.0719,0.0725,0.0731,0.0731,0.0733,0.0737,0.0733,0.0727,0.0727,0.0735,0.0735,0.0735,0,0.0575,0.0593,0.0602,0.0608,0.0628,0.0632,0.0641,0.0654,0.0661,0.0672,0.0677,0.0689,0.0695,0.0704,0.0717,0.0719,0.0728,0.0733,0.0734,0.0734,0.0735,0.0735,0.073,0.0738,0.0738,0.0738,0.0738,0,0.0569,0.0575,0.0596,0.0602,0.0609,0.0624,0.0631,0.0641,0.0653,0.066,0.0672,0.0679,0.0695,0.0704,0.0713,0.0723,0.0725,0.0731,0.0733,0.073,0.0729,0.0734,0.0735,0.0738,0.0738,0.0738,0.0738,0,0.0556,0.0571,0.0582,0.06,0.0605,0.061,0.0626,0.0632,0.0643,0.0652,0.0655,0.0672,0.0683,0.0696,0.0711,0.0718,0.0726,0.073,0.0722,0.0724,0.0724,0.0724,0.0722,0.0723,0.073,0.073,0.073,0,0.0552,0.0558,0.0578,0.0584,0.0593,0.0602,0.061,0.0625,0.0632,0.0648,0.0653,0.0665,0.0675,0.0693,0.0706,0.0718,0.0722,0.0721,0.0724,0.0721,0.0723,0.0722,0.0723,0.072,0.0719,0.0719,0.0719,0,0.0544,0.0551,0.0562,0.0576,0.0585,0.0596,0.0607,0.0612,0.0629,0.0637,0.0649,0.0657,0.0673,0.0686,0.07,0.0708,0.0717,0.0718,0.0719,0.0716,0.0711,0.0715,0.072,0.0718,0.0718,0.0718,0.0718,0.0718,0.0536,0.0542,0.0557,0.0569,0.058,0.059,0.0597,0.0609,0.062,0.0635,0.0643,0.0655,0.0668,0.0688,0.0697,0.0706,0.0709,0.071,0.0711,0.0711,0.071,0.071,0.0709,0.0709,0.0709,0.0709,0.0709,0,0.0529,0.054,0.055,0.0567,0.0577,0.0585,0.0598,0.0605,0.0616,0.0629,0.0639,0.0654,0.0666,0.068,0.0693,0.0698,0.0703,0.0701,0.0701,0.0703,0.0707,0.0705,0.0698,0.0698,0.0698,0.0698,0.0698,0.0698,0.0526,0.0537,0.0546,0.0562,0.0573,0.0585,0.0592,0.0603,0.0613,0.0628,0.0639,0.0648,0.0662,0.0676,0.0688,0.0692,0.0696,0.0694,0.0699,0.0702,0.0703,0.0704,0.0702,0.0695,0.0695,0.0695,0.0695,0.0695]},{"header":{"parameterUnit":"m.s-1","parameterCategory":1,"la1":30.2991,"la2":30.254,"lo1":-89.0895,"lo2":-89.0444,"dy":0.0017,"dx":0.0017,"nx":28,"ny":28,"refTime":"2024-04-18T09:00:00:Z","depth":0,"parameterNumber":3,"parameterNumberName":"V-component_of_WINDS"},"data":[0,0,0,0,0,0,0,0,0,0,0,0,0,0,0,0,0,0,0,0,0,0,0,0,0,0,0,0,0,0,0,0,0,0,0,0,0,0,0,0,0,0,0,0,0,0,0,0,0,0,0,0,0,0,0,0,0,0,1.5783,1.5784,0,1.5822,1.5822,1.5822,1.586,1.5861,1.5861,1.5862,1.59,1.59,1.5901,0,0,0,0,0,0,0,0,0,0,0,0,0,1.5741,1.5741,1.5783,1.5784,1.5784,1.5822,1.5822,1.5823,1.586,1.5861,1.5862,1.5862,1.5899,1.59,1.5901,0,0,0,0,0,0,0,0,0,0,0,0,0,1.5767,1.5741,1.5783,1.5808,1.581,1.5821,1.5822,1.5823,1.586,1.5861,1.5862,1.5862,1.5899,1.59,1.5901,1.5891,0,0,1.5903,1.5904,0,0,0,0,0,0,0,0,1.5765,1.5769,1.5804,1.5806,1.5809,1.5837,1.5821,1.5845,1.586,1.5841,1.5862,1.5863,1.5878,1.5881,1.5886,1.5892,1.5894,1.5903,1.5904,1.5904,1.5904,0,0,0,0,0,0,0,1.5764,1.5767,1.5798,1.5804,1.5807,1.5816,1.5821,1.5826,1.5855,1.5843,1.5846,1.585,1.588,1.5885,1.5887,1.5895,1.5903,1.5904,1.5904,1.5905,1.5893,1.5892,0,0,0,0,0,0,1.5758,1.5765,1.5797,1.58,1.5789,1.5816,1.5821,1.5827,1.5855,1.586,1.5849,1.5851,1.5884,1.5886,1.5889,1.5878,1.5904,1.5905,1.5905,1.5894,1.5893,1.5892,0,0,0,0,0,0,1.5757,1.5761,1.5796,1.5783,1.5788,1.5816,1.5822,1.5828,1.5833,1.586,1.5865,1.585,1.5884,1.5888,1.589,1.588,1.5905,1.5906,1.5895,1.5893,1.5892,1.5856,0,0,0,0,0,0,1.5756,1.576,1.5757,1.5783,1.5789,1.5797,1.5822,1.5828,1.5835,1.5838,1.5862,1.5866,1.5885,1.5888,1.589,1.5881,1.5907,1.5896,1.5894,1.5893,1.5859,1.5854,1.585,0,0,0,0,0,1.5754,1.5746,1.5757,1.5761,1.5786,1.5796,1.5799,1.5822,1.5834,1.5831,1.5847,1.5865,1.588,1.5888,1.5891,1.5882,1.5896,1.5894,1.5893,1.586,1.5855,1.585,0,0,0,0,0,0,1.5718,1.5749,1.5762,1.5762,1.5776,1.5802,1.5799,1.5815,1.5826,1.5829,1.5856,1.586,1.5859,1.5871,1.5879,1.5873,1.5891,1.5889,1.5865,1.586,1.5856,1.5853,1.5907,0,0,0,0,0,1.571,1.5716,1.5743,1.574,1.5746,1.5771,1.5777,1.5792,1.5808,1.5814,1.5831,1.5845,1.5853,1.5857,1.5866,1.586,1.5865,1.5855,1.5851,1.5848,1.5846,1.5843,1.5838,1.5886,1.5886,1.5886,0,0,1.5693,1.5711,1.5713,1.5733,1.5746,1.5751,1.5776,1.5781,1.5784,1.5815,1.5817,1.583,1.5847,1.5845,1.5845,1.5855,1.5834,1.5845,1.5842,1.5843,1.5841,1.5836,1.5832,1.5885,1.5885,1.5885,0,0,1.5665,1.568,1.5678,1.5691,1.571,1.5726,1.5726,1.5749,1.5759,1.5762,1.5785,1.5789,1.5802,1.5813,1.5821,1.5795,1.5812,1.5797,1.5776,1.5772,1.5768,1.5765,1.5755,1.5752,1.5796,1.5796,1.5796,0,1.5642,1.5651,1.5676,1.5678,1.5686,1.5714,1.5712,1.5722,1.5743,1.5747,1.5757,1.5774,1.5787,1.5788,1.5781,1.5787,1.5786,1.5795,1.5767,1.5764,1.5762,1.5752,1.5749,1.5794,1.5794,1.5794,1.5794,0,1.5621,1.5627,1.5623,1.5643,1.565,1.565,1.5674,1.5678,1.5693,1.5708,1.571,1.5727,1.5739,1.574,1.5755,1.5742,1.5748,1.5762,1.5781,1.5755,1.5746,1.5743,1.5791,1.5792,1.5792,1.5793,0,0,1.5572,1.5604,1.5602,1.5611,1.5633,1.5638,1.5639,1.5651,1.5653,1.5666,1.5667,1.5677,1.5691,1.5699,1.5715,1.5712,1.5689,1.5727,1.5728,1.5719,1.5675,1.5664,1.5659,1.5701,1.57,1.57,1.5674,0,1.5548,1.5552,1.5573,1.5571,1.5576,1.5602,1.5602,1.5616,1.5629,1.5635,1.565,1.5656,1.5674,1.5679,1.5677,1.5693,1.5681,1.5695,1.5701,1.5701,1.5696,1.5655,1.5644,1.5618,1.5671,1.567,1.567,0,1.552,1.5531,1.5529,1.555,1.5553,1.5554,1.5566,1.5571,1.5586,1.5596,1.5605,1.5623,1.5624,1.5642,1.5643,1.5652,1.5656,1.5664,1.5663,1.5664,1.5683,1.5655,1.5611,1.5607,1.5665,1.5666,1.5666,0,1.5484,1.5498,1.5499,1.5505,1.553,1.5529,1.554,1.5556,1.5561,1.5571,1.5575,1.5585,1.5591,1.5598,1.5617,1.5629,1.5616,1.5636,1.5624,1.5624,1.562,1.562,1.5576,1.5623,1.5623,1.5623,1.5624,0,1.5454,1.5452,1.5482,1.5483,1.548,1.5504,1.5501,1.5513,1.5527,1.5529,1.5552,1.5554,1.558,1.5584,1.56,1.5598,1.5601,1.5608,1.5612,1.5606,1.5605,1.5609,1.5611,1.5623,1.5623,1.5623,1.5623,0,1.5413,1.5434,1.5436,1.5459,1.5465,1.5462,1.5481,1.5482,1.5496,1.5499,1.5501,1.5524,1.553,1.555,1.5562,1.5572,1.5565,1.5573,1.556,1.5563,1.555,1.555,1.5506,1.5501,1.5552,1.5551,1.5551,0,1.5393,1.5392,1.5414,1.5418,1.5427,1.5432,1.5438,1.5461,1.5465,1.5482,1.548,1.5488,1.5495,1.5504,1.5521,1.5529,1.5537,1.5521,1.5539,1.5532,1.5536,1.5536,1.5536,1.5517,1.5516,1.5516,1.5515,0,1.5354,1.5364,1.5372,1.5382,1.5388,1.5397,1.5408,1.5409,1.5435,1.5438,1.5445,1.5451,1.5462,1.5469,1.548,1.549,1.5506,1.551,1.5507,1.5501,1.5493,1.5496,1.5549,1.5511,1.5511,1.5511,1.5512,1.5512,1.5323,1.5323,1.5338,1.5345,1.5355,1.5364,1.5366,1.538,1.5386,1.5397,1.541,1.5415,1.5429,1.5445,1.5453,1.5457,1.5466,1.5463,1.5462,1.546,1.5457,1.5492,1.5459,1.5459,1.5459,1.5459,1.5459,0,1.5285,1.5296,1.5302,1.5316,1.5321,1.5337,1.5349,1.5352,1.5356,1.5367,1.5374,1.5381,1.5387,1.5405,1.5413,1.5412,1.542,1.5414,1.5414,1.5415,1.5449,1.545,1.5407,1.5407,1.5407,1.5407,1.5407,1.5407,1.5266,1.5266,1.5277,1.5282,1.5293,1.5298,1.5303,1.5311,1.532,1.5327,1.5333,1.5344,1.5357,1.5366,1.5373,1.5378,1.5379,1.537,1.5377,1.5408,1.5413,1.5418,1.5419,1.5371,1.5371,1.5344,1.5344,1.5343]}]]